status,avgMeasuredTime,avgSpeed,extID,medianMeasuredTime,TIMESTAMP,vehicleCount,_id,REPORT_ID
OK,104,43,699,104,2014-08-01T07:50:00,0,20746251,198330
OK,104,43,699,104,2014-08-01T07:55:00,0,20746423,198330
OK,148,30,699,148,2014-08-01T08:00:00,1,20746754,198330
OK,148,30,699,148,2014-08-01T08:05:00,1,20747203,198330
OK,148,30,699,148,2014-08-01T08:10:00,0,20747576,198330
OK,105,42,699,105,2014-08-01T08:15:00,1,20748025,198330
OK,105,42,699,105,2014-08-01T08:20:00,0,20748474,198330
OK,105,42,699,105,2014-08-01T08:25:00,0,20748923,198330
OK,105,42,699,105,2014-08-01T08:30:00,0,20749372,198330
OK,105,42,699,105,2014-08-01T08:35:00,0,20749821,198330
OK,105,42,699,105,2014-08-01T08:40:00,0,20750270,198330
OK,105,42,699,105,2014-08-01T08:45:00,0,20750719,198330
OK,105,42,699,105,2014-08-01T08:50:00,0,20751168,198330
OK,105,42,699,105,2014-08-01T08:55:00,0,20751617,198330
OK,105,42,699,105,2014-08-01T09:00:00,0,20752066,198330
OK,85,52,699,85,2014-08-01T09:05:00,1,20752515,198330
OK,85,52,699,85,2014-08-01T09:10:00,1,20752964,198330
OK,132,34,699,132,2014-08-01T09:15:00,1,20753413,198330
OK,108,41,699,108,2014-08-01T09:20:00,4,20753862,198330
OK,95,47,699,95,2014-08-01T09:25:00,4,20754311,198330
OK,106,42,699,106,2014-08-01T09:30:00,1,20754760,198330
OK,106,42,699,106,2014-08-01T09:35:00,0,20755209,198330
OK,106,42,699,106,2014-08-01T09:40:00,0,20755658,198330
OK,106,42,699,106,2014-08-01T09:45:00,0,20756107,198330
OK,106,42,699,106,2014-08-01T09:50:00,0,20756556,198330
OK,106,42,699,106,2014-08-01T09:55:00,0,20757005,198330
OK,106,42,699,106,2014-08-01T10:00:00,0,20757454,198330
OK,106,42,699,106,2014-08-01T10:05:00,0,20757903,198330
OK,106,42,699,106,2014-08-01T10:10:00,0,20758352,198330
OK,106,42,699,106,2014-08-01T10:15:00,0,20758801,198330
OK,106,42,699,106,2014-08-01T10:20:00,0,20759250,198330
OK,106,42,699,106,2014-08-01T10:25:00,0,20759699,198330
OK,150,29,699,150,2014-08-01T10:30:00,1,20760148,198330
OK,150,29,699,150,2014-08-01T10:35:00,1,20760597,198330
OK,125,35,699,125,2014-08-01T10:40:00,1,20761046,198330
OK,125,35,699,125,2014-08-01T10:45:00,1,20761495,198330
OK,125,35,699,125,2014-08-01T10:50:00,0,20761944,198330
OK,148,30,699,148,2014-08-01T10:55:00,1,20762393,198330
OK,131,34,699,131,2014-08-01T11:00:00,4,20762842,198330
OK,114,39,699,114,2014-08-01T11:05:00,3,20763291,198330
OK,110,40,699,110,2014-08-01T11:10:00,0,20763740,198330
OK,110,40,699,110,2014-08-01T11:15:00,0,20764189,198330
OK,110,40,699,110,2014-08-01T11:20:00,0,20764637,198330
OK,95,47,699,95,2014-08-01T11:25:00,1,20765086,198330
OK,95,47,699,95,2014-08-01T11:30:00,1,20765535,198330
OK,95,47,699,95,2014-08-01T11:35:00,0,20765984,198330
OK,86,52,699,86,2014-08-01T11:40:00,1,20766433,198330
OK,93,48,699,93,2014-08-01T11:45:00,2,20766882,198330
OK,100,44,699,100,2014-08-01T11:50:00,1,20767331,198330
OK,164,27,699,164,2014-08-01T11:55:00,1,20767780,198330
OK,164,27,699,164,2014-08-01T12:00:00,0,20768229,198330
OK,161,27,699,161,2014-08-01T12:05:00,1,20768678,198330
OK,112,40,699,112,2014-08-01T12:10:00,2,20769127,198330
OK,123,36,699,123,2014-08-01T12:15:00,4,20769576,198330
OK,125,35,699,125,2014-08-01T12:20:00,3,20770025,198330
OK,104,43,699,104,2014-08-01T12:25:00,3,20770474,198330
OK,95,47,699,95,2014-08-01T12:30:00,3,20770923,198330
OK,147,30,699,147,2014-08-01T12:35:00,2,20771372,198330
OK,200,22,699,200,2014-08-01T12:40:00,1,20771821,198330
OK,106,42,699,106,2014-08-01T12:45:00,1,20772270,198330
OK,124,36,699,124,2014-08-01T12:50:00,3,20772719,198330
OK,124,36,699,124,2014-08-01T12:55:00,2,20773168,198330
OK,125,35,699,125,2014-08-01T13:00:00,5,20773617,198330
OK,115,39,699,115,2014-08-01T13:05:00,7,20774066,198330
OK,104,43,699,104,2014-08-01T13:10:00,2,20774515,198330
OK,100,44,699,100,2014-08-01T13:15:00,0,20774964,198330
OK,100,44,699,100,2014-08-01T13:20:00,0,20775413,198330
OK,100,44,699,100,2014-08-01T13:25:00,0,20775862,198330
OK,100,44,699,100,2014-08-01T13:30:00,0,20776311,198330
OK,95,47,699,95,2014-08-01T13:35:00,1,20776760,198330
OK,107,41,699,107,2014-08-01T13:40:00,3,20777209,198330
OK,108,41,699,108,2014-08-01T13:45:00,2,20777658,198330
OK,128,35,699,128,2014-08-01T13:50:00,1,20778107,198330
OK,128,35,699,128,2014-08-01T13:55:00,0,20778556,198330
OK,126,35,699,126,2014-08-01T14:00:00,1,20779005,198330
OK,89,50,699,89,2014-08-01T14:05:00,1,20779454,198330
OK,89,50,699,89,2014-08-01T14:10:00,1,20779903,198330
OK,89,50,699,89,2014-08-01T14:15:00,0,20780352,198330
OK,89,50,699,89,2014-08-01T14:20:00,0,20780801,198330
OK,89,50,699,89,2014-08-01T14:25:00,0,20781250,198330
OK,89,50,699,89,2014-08-01T14:30:00,0,20781699,198330
OK,89,50,699,89,2014-08-01T14:35:00,0,20782148,198330
OK,111,40,699,111,2014-08-01T14:40:00,1,20782597,198330
OK,111,40,699,111,2014-08-01T14:45:00,1,20783046,198330
OK,111,40,699,111,2014-08-01T14:50:00,0,20783495,198330
OK,111,40,699,111,2014-08-01T14:55:00,0,20783944,198330
OK,111,40,699,111,2014-08-01T15:00:00,0,20784393,198330
OK,159,28,699,159,2014-08-01T15:05:00,2,20784842,198330
OK,124,36,699,124,2014-08-01T15:10:00,1,20785291,198330
OK,146,30,699,146,2014-08-01T15:15:00,2,20785740,198330
OK,146,30,699,146,2014-08-01T15:20:00,2,20786189,198330
OK,141,31,699,141,2014-08-01T15:25:00,1,20786638,198330
OK,141,31,699,141,2014-08-01T15:30:00,2,20787087,198330
OK,141,31,699,141,2014-08-01T15:35:00,1,20787536,198330
OK,141,31,699,141,2014-08-01T15:40:00,0,20787985,198330
OK,216,20,699,216,2014-08-01T15:45:00,1,20788434,198330
OK,216,20,699,216,2014-08-01T15:50:00,1,20788883,198330
OK,216,20,699,216,2014-08-01T15:55:00,0,20789332,198330
OK,216,20,699,216,2014-08-01T16:00:00,0,20789781,198330
OK,115,39,699,115,2014-08-01T16:05:00,1,20790230,198330
OK,134,33,699,134,2014-08-01T16:10:00,1,20790679,198330
OK,134,33,699,134,2014-08-01T16:15:00,1,20791128,198330
OK,97,46,699,97,2014-08-01T16:20:00,1,20791577,198330
OK,97,46,699,97,2014-08-01T16:25:00,1,20792026,198330
OK,97,46,699,97,2014-08-01T16:30:00,0,20792475,198330
OK,97,46,699,97,2014-08-01T16:35:00,0,20792924,198330
OK,97,46,699,97,2014-08-01T16:40:00,0,20793373,198330
OK,159,28,699,159,2014-08-01T16:45:00,2,20793822,198330
OK,141,31,699,141,2014-08-01T16:50:00,2,20794271,198330
OK,103,43,699,103,2014-08-01T16:55:00,3,20794720,198330
OK,105,42,699,105,2014-08-01T17:00:00,3,20795169,198330
OK,172,26,699,172,2014-08-01T17:05:00,1,20795618,198330
OK,172,26,699,172,2014-08-01T17:10:00,0,20796067,198330
OK,172,26,699,172,2014-08-01T17:15:00,0,20796516,198330
OK,133,33,699,133,2014-08-01T17:20:00,1,20796965,198330
OK,117,38,699,117,2014-08-01T17:25:00,3,20797414,198330
OK,107,41,699,107,2014-08-01T17:30:00,2,20797863,198330
OK,117,38,699,117,2014-08-01T17:35:00,0,20798312,198330
OK,89,50,699,89,2014-08-01T17:40:00,1,20798761,198330
OK,89,50,699,89,2014-08-01T17:45:00,0,20799210,198330
OK,89,50,699,89,2014-08-01T17:50:00,0,20799659,198330
OK,89,50,699,89,2014-08-01T17:55:00,0,20800108,198330
OK,89,50,699,89,2014-08-01T18:00:00,0,20800557,198330
OK,189,23,699,189,2014-08-01T18:05:00,1,20801006,198330
OK,189,23,699,189,2014-08-01T18:10:00,0,20801455,198330
OK,189,23,699,189,2014-08-01T18:15:00,0,20801904,198330
OK,189,23,699,189,2014-08-01T18:20:00,0,20802353,198330
OK,189,23,699,189,2014-08-01T18:25:00,0,20802802,198330
OK,182,24,699,182,2014-08-01T18:30:00,1,20803251,198330
OK,182,24,699,182,2014-08-01T18:35:00,1,20803700,198330
OK,138,32,699,138,2014-08-01T18:40:00,1,20804149,198330
OK,134,33,699,134,2014-08-01T18:45:00,1,20804598,198330
OK,123,36,699,123,2014-08-01T18:50:00,1,20805047,198330
OK,134,33,699,134,2014-08-01T18:55:00,0,20805496,198330
OK,134,33,699,134,2014-08-01T19:00:00,0,20805945,198330
OK,114,39,699,114,2014-08-01T19:05:00,2,20806394,198330
OK,114,39,699,114,2014-08-01T19:10:00,0,20806843,198330
OK,114,39,699,114,2014-08-01T19:15:00,0,20807292,198330
OK,114,39,699,114,2014-08-01T19:20:00,0,20807741,198330
OK,91,49,699,91,2014-08-01T19:25:00,1,20808190,198330
OK,91,49,699,91,2014-08-01T19:30:00,0,20808639,198330
OK,91,49,699,91,2014-08-01T19:35:00,0,20809088,198330
OK,91,49,699,91,2014-08-01T19:40:00,0,20809537,198330
OK,91,49,699,91,2014-08-01T19:45:00,0,20809986,198330
OK,99,45,699,99,2014-08-01T19:50:00,1,20810435,198330
OK,99,45,699,99,2014-08-01T19:55:00,0,20810884,198330
OK,99,45,699,99,2014-08-01T20:00:00,0,20811330,198330
OK,99,45,699,99,2014-08-01T20:05:00,0,20811503,198330
OK,99,45,699,99,2014-08-01T20:10:00,0,20811706,198330
OK,105,42,699,105,2014-08-01T20:15:00,0,20811912,198330
OK,105,42,699,105,2014-08-01T20:20:00,0,20812121,198330
OK,105,42,699,105,2014-08-01T20:25:00,0,20812340,198330
OK,215,20,699,215,2014-08-01T20:30:00,1,20812554,198330
OK,215,20,699,215,2014-08-01T20:35:00,1,20812762,198330
OK,116,38,699,116,2014-08-01T20:40:00,1,20812965,198330
OK,116,38,699,116,2014-08-01T20:45:00,1,20813172,198330
OK,116,38,699,116,2014-08-01T20:50:00,0,20813383,198330
OK,116,38,699,116,2014-08-01T20:55:00,0,20813613,198330
OK,116,38,699,116,2014-08-01T21:00:00,0,20813851,198330
OK,116,38,699,116,2014-08-01T21:05:00,0,20814028,198330
OK,116,38,699,116,2014-08-01T21:10:00,0,20814267,198330
OK,116,38,699,116,2014-08-01T21:15:00,0,20814463,198330
OK,116,38,699,116,2014-08-01T21:20:00,0,20814670,198330
OK,116,38,699,116,2014-08-01T21:25:00,0,20814899,198330
OK,116,38,699,116,2014-08-01T21:30:00,0,20815175,198330
OK,116,38,699,116,2014-08-01T21:35:00,0,20815408,198330
OK,116,38,699,116,2014-08-01T21:40:00,0,20815632,198330
OK,116,38,699,116,2014-08-01T21:45:00,0,20815869,198330
OK,116,38,699,116,2014-08-01T21:50:00,0,20816110,198330
OK,116,38,699,116,2014-08-01T21:55:00,0,20816345,198330
OK,116,38,699,116,2014-08-01T22:00:00,0,20816613,198330
OK,116,38,699,116,2014-08-01T22:05:00,0,20817062,198330
OK,116,38,699,116,2014-08-01T22:10:00,0,20817384,198330
OK,116,38,699,116,2014-08-01T22:15:00,0,20817813,198330
OK,116,38,699,116,2014-08-01T22:20:00,0,20818103,198330
OK,116,38,699,116,2014-08-01T22:25:00,0,20818419,198330
OK,116,38,699,116,2014-08-01T22:30:00,0,20818753,198330
OK,116,38,699,116,2014-08-01T22:35:00,0,20819055,198330
OK,116,38,699,116,2014-08-01T22:40:00,0,20819237,198330
OK,116,38,699,116,2014-08-01T22:45:00,0,20819525,198330
OK,88,51,699,88,2014-08-01T22:50:00,1,20819760,198330
OK,88,51,699,88,2014-08-01T22:55:00,0,20820013,198330
OK,88,51,699,88,2014-08-01T23:00:00,0,20820189,198330
OK,88,51,699,88,2014-08-01T23:05:00,0,20820442,198330
OK,88,51,699,88,2014-08-01T23:10:00,0,20820672,198330
OK,88,51,699,88,2014-08-01T23:15:00,0,20820860,198330
OK,88,51,699,88,2014-08-01T23:20:00,0,20821110,198330
OK,88,51,699,88,2014-08-01T23:25:00,0,20821288,198330
OK,88,51,699,88,2014-08-01T23:30:00,0,20821514,198330
OK,88,51,699,88,2014-08-01T23:35:00,0,20821759,198330
OK,88,51,699,88,2014-08-01T23:40:00,0,20821938,198330
OK,88,51,699,88,2014-08-01T23:45:00,0,20822161,198330
OK,88,51,699,88,2014-08-01T23:50:00,0,20822428,198330
OK,88,51,699,88,2014-08-01T23:55:00,0,20822754,198330
OK,88,51,699,88,2014-08-02T00:00:00,0,20823052,198330
OK,88,51,699,88,2014-08-02T00:05:00,0,20823501,198330
OK,88,51,699,88,2014-08-02T00:10:00,0,20823950,198330
OK,88,51,699,88,2014-08-02T00:15:00,0,20824399,198330
OK,88,51,699,88,2014-08-02T00:20:00,0,20824848,198330
OK,88,51,699,88,2014-08-02T00:25:00,0,20825297,198330
OK,88,51,699,88,2014-08-02T00:30:00,0,20825746,198330
OK,88,51,699,88,2014-08-02T00:35:00,0,20826195,198330
OK,88,51,699,88,2014-08-02T00:40:00,0,20826644,198330
OK,88,51,699,88,2014-08-02T00:45:00,0,20827093,198330
OK,88,51,699,88,2014-08-02T00:50:00,0,20827542,198330
OK,88,51,699,88,2014-08-02T00:55:00,0,20827991,198330
OK,88,51,699,88,2014-08-02T01:00:00,0,20828440,198330
OK,88,51,699,88,2014-08-02T01:05:00,0,20828889,198330
OK,88,51,699,88,2014-08-02T01:10:00,0,20829338,198330
OK,88,51,699,88,2014-08-02T01:15:00,0,20829787,198330
OK,88,51,699,88,2014-08-02T01:20:00,0,20830236,198330
OK,88,51,699,88,2014-08-02T01:25:00,0,20830685,198330
OK,88,51,699,88,2014-08-02T01:30:00,0,20831134,198330
OK,88,51,699,88,2014-08-02T01:35:00,0,20831583,198330
OK,88,51,699,88,2014-08-02T01:40:00,0,20832032,198330
OK,88,51,699,88,2014-08-02T01:45:00,0,20832481,198330
OK,88,51,699,88,2014-08-02T01:50:00,0,20832930,198330
OK,88,51,699,88,2014-08-02T01:55:00,0,20833379,198330
OK,88,51,699,88,2014-08-02T02:00:00,0,20833828,198330
OK,88,51,699,88,2014-08-02T02:05:00,0,20834277,198330
OK,88,51,699,88,2014-08-02T02:10:00,0,20834726,198330
OK,88,51,699,88,2014-08-02T02:15:00,0,20835175,198330
OK,88,51,699,88,2014-08-02T02:20:00,0,20835624,198330
OK,88,51,699,88,2014-08-02T02:25:00,0,20836073,198330
OK,88,51,699,88,2014-08-02T02:30:00,0,20836522,198330
OK,88,51,699,88,2014-08-02T02:35:00,0,20836971,198330
OK,88,51,699,88,2014-08-02T02:40:00,0,20837420,198330
OK,88,51,699,88,2014-08-02T02:45:00,0,20837869,198330
OK,88,51,699,88,2014-08-02T02:50:00,0,20838318,198330
OK,88,51,699,88,2014-08-02T02:55:00,0,20838767,198330
OK,88,51,699,88,2014-08-02T03:00:00,0,20839216,198330
OK,88,51,699,88,2014-08-02T03:05:00,0,20839665,198330
OK,88,51,699,88,2014-08-02T03:10:00,0,20840114,198330
OK,88,51,699,88,2014-08-02T03:15:00,0,20840563,198330
OK,88,51,699,88,2014-08-02T03:20:00,0,20841012,198330
OK,88,51,699,88,2014-08-02T03:25:00,0,20841461,198330
OK,88,51,699,88,2014-08-02T03:30:00,0,20841910,198330
OK,88,51,699,88,2014-08-02T03:35:00,0,20842359,198330
OK,88,51,699,88,2014-08-02T03:40:00,0,20842808,198330
OK,88,51,699,88,2014-08-02T03:45:00,0,20843257,198330
OK,88,51,699,88,2014-08-02T03:50:00,0,20843706,198330
OK,88,51,699,88,2014-08-02T03:55:00,0,20844155,198330
OK,88,51,699,88,2014-08-02T04:00:00,0,20844604,198330
OK,88,51,699,88,2014-08-02T04:05:00,0,20844735,198330
OK,88,51,699,88,2014-08-02T04:10:00,0,20845065,198330
OK,88,51,699,88,2014-08-02T04:15:00,0,20845245,198330
OK,88,51,699,88,2014-08-02T04:20:00,0,20845601,198330
OK,88,51,699,88,2014-08-02T04:25:00,0,20845968,198330
OK,88,51,699,88,2014-08-02T04:30:00,0,20846157,198330
OK,88,51,699,88,2014-08-02T04:35:00,0,20846524,198330
OK,88,51,699,88,2014-08-02T04:40:00,0,20846907,198330
OK,88,51,699,88,2014-08-02T04:45:00,0,20847166,198330
OK,88,51,699,88,2014-08-02T04:50:00,0,20847532,198330
OK,88,51,699,88,2014-08-02T04:55:00,0,20847889,198330
OK,88,51,699,88,2014-08-02T05:00:00,0,20848249,198330
OK,88,51,699,88,2014-08-02T05:05:00,0,20848413,198330
OK,88,51,699,88,2014-08-02T05:10:00,0,20848767,198330
OK,88,51,699,88,2014-08-02T05:15:00,0,20848959,198330
OK,88,51,699,88,2014-08-02T05:20:00,0,20849303,198330
OK,88,51,699,88,2014-08-02T05:30:00,0,20849828,198330
OK,88,51,699,88,2014-08-02T05:35:00,0,20850100,198330
OK,88,51,699,88,2014-08-02T05:40:00,0,20850393,198330
OK,88,51,699,88,2014-08-02T05:45:00,0,20850694,198330
OK,88,51,699,88,2014-08-02T05:50:00,0,20851052,198330
OK,88,51,699,88,2014-08-02T05:55:00,0,20851306,198330
OK,88,51,699,88,2014-08-02T06:00:00,0,20851609,198330
OK,88,51,699,88,2014-08-02T06:05:00,0,20852058,198330
OK,88,51,699,88,2014-08-02T06:10:00,0,20852507,198330
OK,88,51,699,88,2014-08-02T06:15:00,0,20852956,198330
OK,88,51,699,88,2014-08-02T06:20:00,0,20853405,198330
OK,88,51,699,88,2014-08-02T06:25:00,0,20853854,198330
OK,88,51,699,88,2014-08-02T06:30:00,0,20854303,198330
OK,88,51,699,88,2014-08-02T06:35:00,0,20854752,198330
OK,88,51,699,88,2014-08-02T06:40:00,0,20855201,198330
OK,88,51,699,88,2014-08-02T06:45:00,0,20855650,198330
OK,88,51,699,88,2014-08-02T06:50:00,0,20856099,198330
OK,88,51,699,88,2014-08-02T06:55:00,0,20856548,198330
OK,88,51,699,88,2014-08-02T07:00:00,0,20856997,198330
OK,88,51,699,88,2014-08-02T07:05:00,0,20857446,198330
OK,88,51,699,88,2014-08-02T07:10:00,0,20857895,198330
OK,88,51,699,88,2014-08-02T07:15:00,0,20858344,198330
OK,88,51,699,88,2014-08-02T07:20:00,0,20858793,198330
OK,88,51,699,88,2014-08-02T07:25:00,0,20859242,198330
OK,88,51,699,88,2014-08-02T07:30:00,0,20859691,198330
OK,88,51,699,88,2014-08-02T07:35:00,0,20860140,198330
OK,88,51,699,88,2014-08-02T07:40:00,0,20860589,198330
OK,88,51,699,88,2014-08-02T07:45:00,0,20861038,198330
OK,88,51,699,88,2014-08-02T07:50:00,0,20861487,198330
OK,88,51,699,88,2014-08-02T07:55:00,0,20861936,198330
OK,88,51,699,88,2014-08-02T08:00:00,0,20862385,198330
OK,88,51,699,88,2014-08-02T08:05:00,0,20862834,198330
OK,88,51,699,88,2014-08-02T08:10:00,0,20863283,198330
OK,88,51,699,88,2014-08-02T08:15:00,0,20863732,198330
OK,88,51,699,88,2014-08-02T08:20:00,0,20864181,198330
OK,88,51,699,88,2014-08-02T08:25:00,0,20864630,198330
OK,88,51,699,88,2014-08-02T08:30:00,0,20865079,198330
OK,88,51,699,88,2014-08-02T08:35:00,0,20865528,198330
OK,88,51,699,88,2014-08-02T08:40:00,0,20865977,198330
OK,108,41,699,108,2014-08-02T08:45:00,1,20866426,198330
OK,134,33,699,134,2014-08-02T08:50:00,1,20866875,198330
OK,112,40,699,112,2014-08-02T08:55:00,2,20867324,198330
OK,90,49,699,90,2014-08-02T09:00:00,0,20867773,198330
OK,90,49,699,90,2014-08-02T09:05:00,0,20868222,198330
OK,90,49,699,90,2014-08-02T09:10:00,0,20868671,198330
OK,90,49,699,90,2014-08-02T09:15:00,0,20869120,198330
OK,90,49,699,90,2014-08-02T09:20:00,0,20869569,198330
OK,187,24,699,187,2014-08-02T09:25:00,1,20870018,198330
OK,112,40,699,112,2014-08-02T09:30:00,1,20870467,198330
OK,133,33,699,133,2014-08-02T09:35:00,1,20870916,198330
OK,133,33,699,133,2014-08-02T09:40:00,0,20871365,198330
OK,133,33,699,133,2014-08-02T09:45:00,0,20871814,198330
OK,152,29,699,152,2014-08-02T09:50:00,1,20872263,198330
OK,152,29,699,152,2014-08-02T09:55:00,0,20872712,198330
OK,92,48,699,92,2014-08-02T10:00:00,2,20873161,198330
OK,92,48,699,92,2014-08-02T10:05:00,2,20873610,198330
OK,95,47,699,95,2014-08-02T10:10:00,0,20874059,198330
OK,95,47,699,95,2014-08-02T10:15:00,0,20874508,198330
OK,95,47,699,95,2014-08-02T10:20:00,0,20874957,198330
OK,95,47,699,95,2014-08-02T10:25:00,0,20875406,198330
OK,95,47,699,95,2014-08-02T10:30:00,0,20875855,198330
OK,95,47,699,95,2014-08-02T10:35:00,0,20876304,198330
OK,95,47,699,95,2014-08-02T10:40:00,0,20876753,198330
OK,95,47,699,95,2014-08-02T10:45:00,0,20877202,198330
OK,95,47,699,95,2014-08-02T10:50:00,0,20877651,198330
OK,95,47,699,95,2014-08-02T10:55:00,1,20878100,198330
OK,104,43,699,104,2014-08-02T11:00:00,4,20878549,198330
OK,114,39,699,114,2014-08-02T11:05:00,3,20878998,198330
OK,114,39,699,114,2014-08-02T11:10:00,0,20879447,198330
OK,114,39,699,114,2014-08-02T11:15:00,0,20879896,198330
OK,114,39,699,114,2014-08-02T11:20:00,0,20880345,198330
OK,114,39,699,114,2014-08-02T11:25:00,0,20880794,198330
OK,114,39,699,114,2014-08-02T11:30:00,0,20881243,198330
OK,119,37,699,119,2014-08-02T11:35:00,1,20881692,198330
OK,119,37,699,119,2014-08-02T11:40:00,1,20882141,198330
OK,119,37,699,119,2014-08-02T11:45:00,0,20882590,198330
OK,119,37,699,119,2014-08-02T11:50:00,0,20883039,198330
OK,119,37,699,119,2014-08-02T11:55:00,0,20883488,198330
OK,115,39,699,115,2014-08-02T12:00:00,1,20883937,198330
OK,115,39,699,115,2014-08-02T12:05:00,0,20884386,198330
OK,115,39,699,115,2014-08-02T12:10:00,0,20884835,198330
OK,116,38,699,116,2014-08-02T12:15:00,1,20885284,198330
OK,116,38,699,116,2014-08-02T12:20:00,0,20885733,198330
OK,116,38,699,116,2014-08-02T12:25:00,0,20886182,198330
OK,116,38,699,116,2014-08-02T12:30:00,0,20886631,198330
OK,169,26,699,169,2014-08-02T12:35:00,2,20887080,198330
OK,211,21,699,211,2014-08-02T12:40:00,1,20887529,198330
OK,115,39,699,115,2014-08-02T12:45:00,1,20887978,198330
OK,115,39,699,115,2014-08-02T12:50:00,0,20888427,198330
OK,115,39,699,115,2014-08-02T12:55:00,0,20888876,198330
OK,95,47,699,95,2014-08-02T13:00:00,1,20889325,198330
OK,133,33,699,133,2014-08-02T13:05:00,1,20889774,198330
OK,115,39,699,115,2014-08-02T13:10:00,1,20890223,198330
OK,115,39,699,115,2014-08-02T13:15:00,1,20890672,198330
OK,115,39,699,115,2014-08-02T13:20:00,0,20891121,198330
OK,115,39,699,115,2014-08-02T13:25:00,0,20891570,198330
OK,129,34,699,129,2014-08-02T13:30:00,1,20892019,198330
OK,113,39,699,113,2014-08-02T13:35:00,2,20892468,198330
OK,101,44,699,101,2014-08-02T13:40:00,1,20892917,198330
OK,124,36,699,124,2014-08-02T13:45:00,1,20893366,198330
OK,124,36,699,124,2014-08-02T13:50:00,1,20893815,198330
OK,124,36,699,124,2014-08-02T13:55:00,0,20894264,198330
OK,107,41,699,107,2014-08-02T14:00:00,2,20894713,198330
OK,107,41,699,107,2014-08-02T14:05:00,2,20895162,198330
OK,107,41,699,107,2014-08-02T14:10:00,0,20895611,198330
OK,169,26,699,169,2014-08-02T14:15:00,1,20896060,198330
OK,109,41,699,109,2014-08-02T14:20:00,2,20896509,198330
OK,114,39,699,114,2014-08-02T14:25:00,1,20896958,198330
OK,103,43,699,103,2014-08-02T14:30:00,1,20897407,198330
OK,103,43,699,103,2014-08-02T14:35:00,1,20897856,198330
OK,103,43,699,103,2014-08-02T14:40:00,0,20898305,198330
OK,103,43,699,103,2014-08-02T14:45:00,1,20898754,198330
OK,103,43,699,103,2014-08-02T14:50:00,1,20899203,198330
OK,103,43,699,103,2014-08-02T14:55:00,0,20899652,198330
OK,103,43,699,103,2014-08-02T15:00:00,0,20900101,198330
OK,103,43,699,103,2014-08-02T15:05:00,0,20900550,198330
OK,103,43,699,103,2014-08-02T15:10:00,0,20900999,198330
OK,103,43,699,103,2014-08-02T15:15:00,0,20901448,198330
OK,102,44,699,102,2014-08-02T15:20:00,1,20901897,198330
OK,165,27,699,165,2014-08-02T15:25:00,2,20902346,198330
OK,165,27,699,165,2014-08-02T15:30:00,2,20902795,198330
OK,165,27,699,165,2014-08-02T15:35:00,0,20903244,198330
OK,165,27,699,165,2014-08-02T15:40:00,0,20903693,198330
OK,165,27,699,165,2014-08-02T15:45:00,0,20904142,198330
OK,165,27,699,165,2014-08-02T15:50:00,0,20904591,198330
OK,165,27,699,165,2014-08-02T15:55:00,0,20905040,198330
OK,153,29,699,153,2014-08-02T16:00:00,1,20905489,198330
OK,117,38,699,117,2014-08-02T16:05:00,3,20905938,198330
OK,116,38,699,116,2014-08-02T16:10:00,2,20906387,198330
OK,115,39,699,115,2014-08-02T16:15:00,1,20906836,198330
OK,115,39,699,115,2014-08-02T16:20:00,0,20907285,198330
OK,115,39,699,115,2014-08-02T16:25:00,0,20907734,198330
OK,115,39,699,115,2014-08-02T16:30:00,0,20908183,198330
OK,118,38,699,118,2014-08-02T16:35:00,3,20908632,198330
OK,118,38,699,118,2014-08-02T16:40:00,3,20909081,198330
OK,128,35,699,128,2014-08-02T16:45:00,0,20909530,198330
OK,128,35,699,128,2014-08-02T16:50:00,0,20909979,198330
OK,182,24,699,182,2014-08-02T16:55:00,1,20910428,198330
OK,182,24,699,182,2014-08-02T17:00:00,0,20910877,198330
OK,182,24,699,182,2014-08-02T17:05:00,0,20911326,198330
OK,182,24,699,182,2014-08-02T17:10:00,0,20911775,198330
OK,182,24,699,182,2014-08-02T17:15:00,0,20912224,198330
OK,182,24,699,182,2014-08-02T17:20:00,0,20912673,198330
OK,120,37,699,120,2014-08-02T17:25:00,1,20913122,198330
OK,130,34,699,130,2014-08-02T17:30:00,2,20913571,198330
OK,140,32,699,140,2014-08-02T17:35:00,1,20914020,198330
OK,140,32,699,140,2014-08-02T17:40:00,0,20914469,198330
OK,140,32,699,140,2014-08-02T17:45:00,0,20914918,198330
OK,120,37,699,120,2014-08-02T17:50:00,2,20915367,198330
OK,173,25,699,173,2014-08-02T17:55:00,1,20915816,198330
OK,173,25,699,173,2014-08-02T18:00:00,0,20916265,198330
OK,107,41,699,107,2014-08-02T18:05:00,1,20916714,198330
OK,107,41,699,107,2014-08-02T18:10:00,0,20917163,198330
OK,107,41,699,107,2014-08-02T18:15:00,0,20917612,198330
OK,107,41,699,107,2014-08-02T18:20:00,0,20918061,198330
OK,107,41,699,107,2014-08-02T18:25:00,0,20918510,198330
OK,107,41,699,107,2014-08-02T18:30:00,0,20918959,198330
OK,107,41,699,107,2014-08-02T18:35:00,0,20919408,198330
OK,107,41,699,107,2014-08-02T18:40:00,0,20919857,198330
OK,107,41,699,107,2014-08-02T18:45:00,0,20920306,198330
OK,107,41,699,107,2014-08-02T18:50:00,0,20920755,198330
OK,107,41,699,107,2014-08-02T18:55:00,0,20921204,198330
OK,107,41,699,107,2014-08-02T19:00:00,0,20921653,198330
OK,107,41,699,107,2014-08-02T19:05:00,0,20922102,198330
OK,107,41,699,107,2014-08-02T19:10:00,0,20922551,198330
OK,107,41,699,107,2014-08-02T19:15:00,0,20923000,198330